Omaha Offutt, NE

2:22 PM CDT on July 22, 2017 (GMT -0500)
Offutt Air Force Base

Weather History for KOFF - September, 2014

Change the Weather History Date:

Thursday, September 4, 2014

  Actual Average Record
Temperature  
Mean Temperature 83 °F -  
Max Temperature 94 °F 81 °F 97 °F (2012)
Min Temperature 72 °F 60 °F 47 °F (2010)
Cooling Degree Days 18    
Growing Degree Days 33 (Base 50)    
Moisture  
Dew Point 73 °F    
Average Humidity 78    
Maximum Humidity 100    
Minimum Humidity 49    
Precipitation  
Precipitation 0.00 in - - ()
Sea Level Pressure  
Sea Level Pressure 29.77 in    
Wind  
Wind Speed 10 mph (SSE)    
Max Wind Speed 13 mph    
Max Gust Speed 21 mph    
Visibility 10 miles    
Events      
Averages and records for this station are not official NWS values.
T = Trace of Precipitation, MM = Missing Value Source: NWS Daily Summary

Daily Weather History Graph

Daily Weather History Graph

Search for Another Location

Airport or City:

Trip Planner

Search our weather history database for the weather conditions in past years. The results will help you decide how hot, cold, wet, or windy it might be!

Date:

Astronomy

Sep. 04, 2014 Rise Set
Actual Time 6:53 AM CDT 7:51 PM CDT
Civil Twilight 6:25 AM CDT 8:19 PM CDT
Nautical Twilight 5:51 AM CDT 8:52 PM CDT
Astronomical Twilight 5:16 AM CDT 9:27 PM CDT
Moon 4:31 PM CDT (9/4) 1:43 AM CDT (9/4)
Length of Visible Light 13h 54m
Length of Day
12h 58m
Waxing Gibbous, 74% of the Moon is Illuminated
Sep 4
Waxing Gibbous
Sep 8
Full
Sep 15
Last Quarter
Sep 24
New
Oct 1
First Quarter

Hourly Weather History & Observations

Time (CDT) Temp. Heat Index Dew Point Humidity Pressure Visibility Wind Dir Wind Speed Gust Speed Precip Events Conditions
12:58 AM 77.9 °F - 77.7 °F 99% 29.70 in 10.0 mi SSE 12.7 mph - N/A   Clear
1:58 AM 77.5 °F - 77.0 °F 98% 29.70 in 10.0 mi SSE 11.5 mph - N/A   Clear
2:58 AM 75.6 °F - 75.2 °F 99% 29.70 in 10.0 mi SSE 9.2 mph - N/A   Clear
3:58 AM 74.3 °F - 73.9 °F 99% 29.70 in 10.0 mi SE 10.4 mph - N/A   Clear
4:58 AM 73.4 °F - 73.4 °F 100% 29.70 in 10.0 mi ESE 5.8 mph - N/A   Clear
5:58 AM 72.9 °F - 72.9 °F 100% 29.70 in 10.0 mi ESE 6.9 mph - N/A   Clear
6:58 AM 72.7 °F - 72.5 °F 99% 29.71 in 10.0 mi ESE 4.6 mph - N/A   Clear
7:58 AM 75.0 °F - 73.2 °F 94% 29.71 in 10.0 mi SE 4.6 mph - N/A   Clear
8:58 AM 80.1 °F 84.1 °F 72.5 °F 78% 29.71 in 10.0 mi South 9.2 mph - N/A   Clear
9:58 AM 84.0 °F 89.6 °F 72.0 °F 67% 29.76 in 10.0 mi WSW 5.8 mph - N/A   Clear
10:58 AM 86.4 °F 92.2 °F 71.2 °F 61% 29.75 in 10.0 mi South 12.7 mph 18.4 mph N/A   Clear
11:58 AM 88.7 °F 96.2 °F 72.7 °F 59% 29.74 in 10.0 mi South 11.5 mph 18.4 mph N/A   Clear
12:58 PM 91.0 °F 98.7 °F 72.5 °F 54% 29.74 in 10.0 mi South 9.2 mph - N/A   Clear
1:58 PM 93.0 °F 100.7 °F 72.0 °F 50% 29.74 in 10.0 mi SSW 12.7 mph 20.7 mph N/A   Clear
2:58 PM 94.3 °F 102.9 °F 72.5 °F 49% 29.75 in 10.0 mi SW 8.1 mph - N/A   Clear
3:58 PM 91.9 °F 101.3 °F 73.9 °F 55% 29.75 in 10.0 mi WNW 10.4 mph - N/A   Clear
4:58 PM 90.0 °F 101.9 °F 76.3 °F 64% 29.75 in 10.0 mi NW 9.2 mph - N/A   Clear
5:58 PM 85.8 °F 96.8 °F 77.2 °F 75% 29.78 in 10.0 mi North 9.2 mph - N/A   Clear
6:58 PM 83.3 °F 91.1 °F 75.4 °F 77% 29.82 in 10.0 mi North 10.4 mph - N/A   Clear
7:58 PM 79.2 °F - 72.9 °F 81% 29.85 in 10.0 mi North 10.4 mph - N/A   Clear
8:58 PM 76.5 °F - 72.1 °F 86% 29.89 in 10.0 mi North 9.2 mph - N/A   Partly Cloudy
9:58 PM 74.8 °F - 70.9 °F 87% 29.92 in 10.0 mi North 8.1 mph - N/A   Partly Cloudy
10:58 PM 73.4 °F - 70.9 °F 92% 29.92 in 10.0 mi NNW 4.6 mph - N/A   Clear
11:58 PM 73.6 °F - 57.6 °F 57% 29.96 in 10.0 mi North 10.4 mph 18.4 mph N/A   Mostly Cloudy